DW7889 Weather Reports


Display with metric or nautical units.
time (UTC)temp
F
wind
direction
speed
MPH
gust
MPH
rain 1hr
in
rain 24hr
in
rain mn
in
humidity
%
barometer
mb
20260510084538 43 300 5.0 8.0 0.00 0.00 0.00 80 1022.0
20260510084040 43 343 4.0 8.0 0.00 0.00 0.00 81 1022.0
20260510083543 43 320 3.0 8.0 0.00 0.00 0.00 80 1021.9
20260510083045 43 323 4.0 9.0 0.00 0.00 0.00 80 1021.9
20260510082526 43 328 4.0 9.0 0.00 0.00 0.00 80 1021.8
20260510082031 43 4 5.0 10.0 0.00 0.00 0.00 80 1021.7
20260510081553 43 356 4.0 10.0 0.00 0.00 0.00 80 1021.7
20260510081035 43 334 4.0 7.0 0.00 0.00 0.00 80 1021.6
20260510080537 43 359 3.0 8.0 0.00 0.00 0.00 81 1021.6
20260510080028 43 337 4.0 9.0 0.00 0.00 0.00 81 1021.7
20260510075532 43 345 5.0 9.0 0.00 0.00 0.00 80 1021.8
20260510075038 43 348 4.0 9.0 0.00 0.00 0.00 81 1021.7
20260510074542 43 310 3.0 9.0 0.00 0.00 0.00 81 1021.7
20260510074027 43 351 5.0 10.0 0.00 0.00 0.00 81 1021.7
20260510073530 43 1 5.0 10.0 0.00 0.00 0.00 81 1021.8
20260510073033 43 6 5.0 8.0 0.00 0.00 0.00 81 1021.7
20260510072534 43 313 3.0 9.0 0.00 0.00 0.00 82 1021.8
20260510072058 43 293 5.0 9.0 0.00 0.00 0.00 82 1021.8
20260510071541 43 345 4.0 8.0 0.00 0.00 0.00 82 1021.8
20260510071044 43 318 4.0 9.0 0.00 0.00 0.00 82 1021.7
20260510070529 43 349 5.0 11.0 0.00 0.00 0.00 82 1021.7
20260510070052 43 292 6.0 10.0 0.00 0.00 0.00 82 1021.7
20260510065537 43 326 5.0 8.0 0.00 0.00 0.00 82 1021.5
20260510065040 44 358 6.0 10.0 0.00 0.00 0.00 82 1021.9
20260510064528 44 323 2.0 10.0 0.00 0.00 0.00 82 1021.7
20260510064035 43 303 3.0 10.0 0.00 0.00 0.00 82 1021.8
20260510063539 43 353 5.0 10.0 0.00 0.00 0.00 82 1021.9
20260510063041 43 331 4.0 12.0 0.00 0.00 0.00 83 1022.0
20260510062525 43 339 7.0 12.0 0.00 0.00 0.00 82 1021.9
20260510062030 43 309 5.0 10.0 0.00 0.00 0.00 83 1022.2
20260510061535 43 323 6.0 11.0 0.00 0.00 0.00 83 1022.3
20260510061059 43 289 5.0 11.0 0.00 0.00 0.00 83 1022.3
20260510060539 43 342 6.0 11.0 0.00 0.00 0.00 83 1022.5
20260510060044 43 335 5.0 8.0 0.00 0.00 0.00 84 1022.4
20260510055545 43 306 5.0 7.0 0.00 0.00 0.00 84 1022.4
20260510055047 44 334 5.0 10.0 0.00 0.00 0.00 84 1022.4
20260510054550 44 333 4.0 12.0 0.00 0.00 0.00 84 1022.4
20260510054030 44 12 5.0 9.0 0.00 0.00 0.00 84 1022.3
20260510053534 44 304 4.0 11.0 0.00 0.00 0.00 84 1022.3
20260510053059 44 359 7.0 11.0 0.00 0.00 0.00 84 1022.2
20260510052545 44 359 5.0 9.0 0.00 0.00 0.00 84 1022.3
20260510052028 44 306 5.0 10.0 0.00 0.00 0.00 85 1022.4
20260510051529 44 283 6.0 10.0 0.00 0.00 0.00 84 1022.4
20260510051031 44 295 5.0 9.0 0.00 0.00 0.00 84 1022.5
20260510050534 44 359 5.0 12.0 0.00 0.00 0.00 84 1022.5
20260510050043 44 322 5.0 12.0 0.00 0.00 0.00 83 1022.5
20260510045608 44 315 5.0 10.0 0.00 0.00 0.00 83 1022.5
20260510045028 44 344 4.0 13.0 0.00 0.00 0.00 83 1022.4
20260510044532 44 340 6.0 12.0 0.00 0.00 0.00 83 1022.5
20260510044036 44 298 5.0 10.0 0.00 0.00 0.00 83 1022.3
20260510043539 44 259 3.0 10.0 0.00 0.00 0.00 83 1022.3
20260510043043 44 300 5.0 13.0 0.00 0.00 0.00 82 1022.4
20260510042529 44 277 7.0 13.0 0.00 0.00 0.00 82 1022.4
20260510042033 44 293 7.0 12.0 0.00 0.00 0.00 82 1022.3
20260510041537 44 309 3.0 11.0 0.00 0.00 0.00 82 1022.3
20260510041041 44 333 5.0 12.0 0.00 0.00 0.00 82 1022.4
20260510040543 44 267 8.0 12.0 0.00 0.00 0.00 83 1022.4
20260510040031 44 314 6.0 9.0 0.00 0.00 0.00 83 1022.3
20260510035534 44 270 4.0 8.0 0.00 0.00 0.00 84 1022.4
20260510035038 44 250 2.0 8.0 0.00 0.00 0.00 84 1022.4
20260510034543 44 293 3.0 8.0 0.00 0.00 0.00 85 1022.4
20260510034028 44 250 2.0 8.0 0.00 0.00 0.00 85 1022.4
20260510033554 44 246 3.0 8.0 0.00 0.00 0.00 85 1022.4
20260510033039 44 278 5.0 8.0 0.00 0.00 0.00 85 1022.4
20260510032527 44 304 2.0 9.0 0.00 0.00 0.00 85 1022.3
20260510032031 44 297 3.0 9.0 0.00 0.00 0.00 85 1022.4
20260510031536 44 273 2.0 9.0 0.00 0.00 0.00 86 1022.3
20260510031042 44 264 4.0 9.0 0.00 0.00 0.00 86 1022.4
20260510030525 44 211 5.0 11.0 0.00 0.00 0.00 86 1022.4
20260510030053 43 309 5.0 11.0 0.00 0.00 0.00 86 1022.4
20260510025538 43 243 3.0 8.0 0.00 0.00 0.00 86 1022.3
20260510025044 43 213 5.0 9.0 0.00 0.00 0.00 86 1022.3
20260510024527 43 293 6.0 9.0 0.00 0.00 0.00 86 1022.3
20260510024032 43 266 5.0 11.0 0.00 0.00 0.00 86 1022.3
20260510023536 43 233 5.0 11.0 0.00 0.00 0.00 86 1022.2
20260510023038 44 232 4.0 9.0 0.00 0.00 0.00 85 1022.1
20260510022526 44 241 4.0 8.0 0.00 0.00 0.00 85 1022.0
20260510022030 44 244 3.0 8.0 0.00 0.00 0.00 85 1022.0
20260510021553 44 217 5.0 11.0 0.00 0.00 0.00 85 1022.0
20260510021036 44 259 7.0 11.0 0.00 0.00 0.00 85 1022.0
20260510020601 44 213 4.0 10.0 0.00 0.00 0.00 85 1022.0
20260510020026 44 210 4.0 11.0 0.00 0.00 0.00 85 1021.9
20260510015529 44 244 5.0 11.0 0.00 0.00 0.00 85 1021.8
20260510015035 44 259 7.0 11.0 0.00 0.00 0.00 85 1021.8
20260510014559 44 235 4.0 11.0 0.00 0.00 0.00 85 1021.7
20260510014040 44 259 7.0 11.0 0.00 0.00 0.00 84 1021.7
20260510013542 44 290 5.0 10.0 0.00 0.00 0.00 84 1021.6
20260510013025 44 254 3.0 6.0 0.00 0.00 0.00 83 1021.5
20260510012529 45 198 4.0 6.0 0.00 0.00 0.00 83 1021.4
20260510012033 45 226 3.0 6.0 0.00 0.00 0.00 82 1021.3
20260510011539 45 225 3.0 10.0 0.00 0.00 0.00 82 1021.2
20260510011028 45 248 7.0 11.0 0.00 0.00 0.00 81 1021.0
20260510010529 45 301 5.0 11.0 0.00 0.00 0.00 81 1021.0
20260510010035 45 211 4.0 9.0 0.00 0.00 0.00 81 1021.0
20260510005540 45 207 2.0 5.0 0.00 0.00 0.00 81 1021.0
20260510005043 45 335 1.0 3.0 0.00 0.00 0.00 81 1021.1
20260510004527 45 316 1.0 3.0 0.00 0.00 0.00 81 1021.1
20260510004034 45 306 1.0 2.0 0.00 0.00 0.00 81 1021.1
20260510003541 45 329 0.0 2.0 0.00 0.00 0.00 80 1021.0
20260510003044 45 329 1.0 3.0 0.00 0.00 0.00 79 1021.0
20260510002527 46 330 1.0 4.0 0.00 0.00 0.00 79 1020.9
20260510002032 46 321 2.0 4.0 0.00 0.00 0.00 78 1020.9
20260510001541 46 335 1.0 3.0 0.00 0.00 0.00 77 1020.9
20260510001027 47 295 1.0 6.0 0.00 0.00 0.00 76 1020.8
20260510000550 47 316 3.0 7.0 0.00 0.00 0.00 75 1020.8
20260510000034 47 248 4.0 7.0 0.00 0.00 0.00 74 1020.8
20260509235540 47 356 3.0 6.0 0.00 0.00 0.00 74 1020.7
20260509235042 47 1 4.0 7.0 0.00 0.00 0.00 74 1020.5
20260509234526 47 354 4.0 7.0 0.00 0.00 0.00 73 1020.3
20260509234032 48 330 4.0 9.0 0.00 0.00 0.00 73 1020.3
20260509233536 48 6 5.0 8.0 0.00 0.00 0.00 73 1020.3
20260509233040 48 359 5.0 12.0 0.00 0.00 0.00 72 1020.2
20260509232604 48 360 6.0 12.0 0.00 0.00 0.00 72 1020.2
20260509232027 48 347 5.0 10.0 0.00 0.00 0.00 72 1020.2
20260509231551 48 345 6.0 9.0 0.00 0.00 0.00 73 1020.0
20260509231033 48 356 5.0 8.0 0.00 0.00 0.00 73 1019.9
20260509230557 48 4 4.0 8.0 0.00 0.00 0.00 73 1020.0
20260509230027 48 356 4.0 7.0 0.00 0.00 0.00 73 1020.1
20260509225531 48 20 5.0 9.0 0.00 0.00 0.00 73 1020.2
20260509225057 48 360 5.0 9.0 0.00 0.00 0.00 72 1020.3
20260509224540 48 348 5.0 8.0 0.00 0.00 0.00 73 1020.3
20260509224024 48 12 4.0 8.0 0.00 0.00 0.00 72 1019.9
20260509223530 48 319 5.0 8.0 0.00 0.00 0.00 72 1019.9
20260509223032 48 8 5.0 9.0 0.00 0.00 0.00 71 1019.7
20260509222535 49 316 5.0 9.0 0.00 0.00 0.00 71 1019.8
20260509222058 49 1 5.0 9.0 0.00 0.00 0.00 71 1019.8
20260509221543 49 1 5.0 10.0 0.00 0.00 0.00 70 1019.5
20260509221025 49 28 5.0 11.0 0.00 0.00 0.00 70 1019.5
20260509220528 49 1 5.0 11.0 0.00 0.00 0.00 70 1019.7
20260509220035 49 1 5.0 11.0 0.00 0.00 0.00 69 1019.5
20260509215538 50 1 4.0 9.0 0.00 0.00 0.00 69 1019.5
20260509215044 50 1 4.0 9.0 0.00 0.00 0.00 68 1019.3
20260509214528 50 356 5.0 9.0 0.00 0.00 0.00 68 1019.2
20260509214032 50 352 4.0 10.0 0.00 0.00 0.00 68 1019.1
20260509213534 50 316 6.0 10.0 0.00 0.00 0.00 67 1018.9
20260509213039 50 323 6.0 10.0 0.00 0.00 0.00 67 1018.9
20260509212525 50 1 7.0 10.0 0.00 0.00 0.00 67 1019.0
20260509212029 50 1 6.0 10.0 0.00 0.00 0.00 67 1019.0
20260509211041 50 359 6.0 11.0 0.00 0.00 0.00 66 1018.7
20260509210601 50 3 5.0 9.0 0.00 0.00 0.00 66 1018.5
20260509210028 51 359 5.0 11.0 0.00 0.00 0.00 65 1018.4
20260509205531 51 12 6.0 12.0 0.00 0.00 0.00 65 1018.4
20260509205035 51 303 6.0 12.0 0.00 0.00 0.00 65 1018.4
20260509204545 51 346 5.0 13.0 0.00 0.00 0.00 64 1018.5
20260509204047 51 1 5.0 13.0 0.00 0.00 0.00 64 1018.4
20260509203528 51 359 5.0 12.0 0.00 0.00 0.00 64 1018.3
20260509203051 51 1 5.0 12.0 0.00 0.00 0.00 64 1018.1
20260509202527 51 1 5.0 10.0 0.00 0.00 0.00 64 1018.1
20260509202052 51 341 5.0 11.0 0.00 0.00 0.00 63 1018.2
20260509201537 51 359 7.0 11.0 0.00 0.00 0.00 62 1018.1
20260509201040 51 351 6.0 11.0 0.00 0.00 0.00 62 1018.4
20260509200544 52 337 5.0 13.0 0.00 0.00 0.00 61 1018.3
20260509200047 52 21 6.0 13.0 0.00 0.00 0.00 61 1018.1
20260509195528 52 331 6.0 10.0 0.00 0.00 0.00 60 1018.3
20260509195032 52 1 6.0 10.0 0.00 0.00 0.00 60 1018.2
20260509194555 52 1 6.0 10.0 0.00 0.00 0.00 59 1018.2
20260509194037 52 359 6.0 15.0 0.00 0.00 0.00 59 1018.1
20260509193600 52 360 9.0 15.0 0.00 0.00 0.00 59 1018.2
20260509193025 52 324 6.0 13.0 0.00 0.00 0.00 59 1018.4
20260509192532 52 1 7.0 13.0 0.00 0.00 0.00 58 1018.3
20260509192035 52 334 6.0 13.0 0.00 0.00 0.00 58 1018.3
20260509191536 52 1 8.0 13.0 0.00 0.00 0.00 58 1018.1
20260509191038 52 354 7.0 12.0 0.00 0.00 0.00 57 1018.0
20260509190536 52 336 5.0 9.0 0.00 0.00 0.00 57 1018.2
20260509190042 52 309 4.0 11.0 0.00 0.00 0.00 57 1018.1
20260509185603 52 348 4.0 13.0 0.00 0.00 0.00 56 1017.9
20260509185024 52 359 7.0 14.0 0.00 0.00 0.00 56 1018.1
20260509184530 53 53 8.0 14.0 0.00 0.00 0.00 55 1018.2
20260509184053 53 343 7.0 15.0 0.00 0.00 0.00 55 1018.0
20260509183530 53 22 8.0 15.0 0.00 0.00 0.00 54 1017.9
20260509183032 53 302 5.0 13.0 0.00 0.00 0.00 55 1017.7
20260509182533 53 341 8.0 12.0 0.00 0.00 0.00 55 1017.7
20260509182055 53 323 5.0 12.0 0.00 0.00 0.00 56 1017.9
20260509181539 53 359 5.0 15.0 0.00 0.00 0.00 55 1018.0
20260509181042 53 321 8.0 15.0 0.00 0.00 0.00 55 1018.1
20260509180524 53 351 8.0 14.0 0.00 0.00 0.00 54 1018.0
20260509180031 53 1 6.0 12.0 0.00 0.00 0.00 55 1018.1
20260509175534 53 1 4.0 12.0 0.00 0.00 0.00 56 1018.1
20260509175035 53 37 7.0 13.0 0.00 0.00 0.00 55 1018.1
20260509174538 53 1 6.0 14.0 0.00 0.00 0.00 55 1018.0
20260509174040 53 8 7.0 14.0 0.00 0.00 0.00 55 1018.1
20260509173538 53 332 7.0 13.0 0.00 0.00 0.00 55 1018.1
20260509173041 53 318 7.0 12.0 0.00 0.00 0.00 54 1018.1
20260509172543 53 304 5.0 11.0 0.00 0.00 0.00 55 1018.0
20260509172028 53 334 7.0 16.0 0.00 0.00 0.00 54 1018.0
20260509171536 53 288 9.0 16.0 0.00 0.00 0.00 53 1018.1
20260509171039 54 8 4.0 14.0 0.00 0.00 0.00 54 1017.9
20260509170543 54 1 8.0 14.0 0.00 0.00 0.00 53 1018.1
20260509170026 54 332 7.0 11.0 0.00 0.00 0.00 53 1017.9
20260509165550 54 334 5.0 15.0 0.00 0.00 0.00 53 1017.6
20260509165034 54 359 6.0 15.0 0.00 0.00 0.00 52 1017.9
20260509164557 54 327 6.0 12.0 0.00 0.00 0.00 52 1018.0
20260509164037 55 351 6.0 16.0 0.00 0.00 0.00 51 1018.0
20260509163539 55 347 5.0 9.0 0.00 0.00 0.00 51 1018.1
20260509163042 55 1 5.0 12.0 0.00 0.00 0.00 51 1018.1
20260509162544 55 360 6.0 12.0 0.00 0.00 0.00 52 1018.1
20260509162026 55 341 6.0 12.0 0.00 0.00 0.00 51 1018.1
20260509161529 55 13 5.0 12.0 0.00 0.00 0.00 51 1018.3
20260509161032 54 307 7.0 15.0 0.00 0.00 0.00 51 1018.2
20260509160552 54 59 5.0 13.0 0.00 0.00 0.00 51 1018.4
20260509160039 54 359 7.0 13.0 0.00 0.00 0.00 52 1018.4
20260509155541 54 359 6.0 13.0 0.00 0.00 0.00 53 1018.6
20260509155043 54 18 5.0 13.0 0.00 0.00 0.00 51 1018.7
20260509154542 54 322 6.0 11.0 0.00 0.00 0.00 52 1018.5
20260509154045 54 1 5.0 13.0 0.00 0.00 0.00 53 1018.5
20260509153528 54 328 6.0 13.0 0.00 0.00 0.00 51 1018.4
20260509153050 53 1 4.0 10.0 0.00 0.00 0.00 54 1018.5
20260509152529 54 340 6.0 13.0 0.00 0.00 0.00 53 1018.6
20260509152034 54 354 4.0 9.0 0.00 0.00 0.00 54 1018.7
20260509151533 53 345 4.0 11.0 0.00 0.00 0.00 53 1018.7
20260509151036 53 6 4.0 11.0 0.00 0.00 0.00 53 1018.7
20260509150539 53 360 5.0 10.0 0.00 0.00 0.00 53 1018.7
20260509150047 53 340 6.0 10.0 0.00 0.00 0.00 52 1018.9
20260509145531 53 330 5.0 12.0 0.00 0.00 0.00 51 1019.0
20260509145035 53 349 4.0 12.0 0.00 0.00 0.00 53 1018.8
20260509144539 53 359 6.0 12.0 0.00 0.00 0.00 52 1018.8
20260509144044 53 1 5.0 10.0 0.00 0.00 0.00 50 1019.0
20260509143527 53 14 5.0 9.0 0.00 0.00 0.00 61 1019.3
20260509143031 52 1 6.0 9.0 0.00 0.00 0.00 62 1019.4
20260509142535 52 349 3.0 9.0 0.00 0.00 0.00 65 1019.3
20260509142039 52 354 4.0 11.0 0.00 0.00 0.00 66 1019.1
20260509141543 51 1 6.0 11.0 0.00 0.00 0.00 71 1019.4
20260509141044 51 1 5.0 10.0 0.00 0.00 0.00 72 1019.2
20260509140546 50 12 6.0 12.0 0.00 0.00 0.00 71 1019.0
20260509140029 50 359 8.0 12.0 0.00 0.00 0.00 73 1019.1
20260509135536 50 356 8.0 11.0 0.00 0.00 0.00 73 1019.2
20260509135058 50 1 6.0 11.0 0.00 0.00 0.00 73 1019.2
20260509134542 49 6 6.0 11.0 0.00 0.00 0.00 73 1019.3
20260509134044 49 334 7.0 12.0 0.00 0.00 0.00 72 1019.2
20260509133529 49 331 8.0 12.0 0.00 0.00 0.00 73 1019.1
20260509133032 49 34 8.0 12.0 0.00 0.00 0.00 74 1019.2
20260509132556 48 14 8.0 12.0 0.00 0.00 0.00 75 1019.3
20260509132039 49 8 7.0 11.0 0.00 0.00 0.00 77 1019.3
20260509131544 49 360 7.0 11.0 0.00 0.00 0.00 76 1019.1
20260509131106 48 357 6.0 11.0 0.00 0.00 0.00 76 1019.1
20260509130528 48 1 6.0 13.0 0.00 0.00 0.00 75 1019.3
20260509130031 48 360 9.0 13.0 0.00 0.00 0.00 74 1019.3
20260509125535 48 19 8.0 14.0 0.00 0.00 0.00 76 1019.2
20260509125056 48 15 8.0 15.0 0.00 0.00 0.00 74 1019.3
20260509124556 49 360 9.0 15.0 0.00 0.00 0.00 73 1019.1
20260509124038 49 350 4.0 10.0 0.00 0.00 0.00 69 1019.0
20260509123540 49 17 6.0 12.0 0.00 0.00 0.00 68 1018.9
20260509123029 49 349 8.0 12.0 0.00 0.00 0.00 63 1018.9
20260509122534 50 359 5.0 10.0 0.00 0.00 0.00 66 1019.0
20260509122056 50 8 5.0 10.0 0.00 0.00 0.00 64 1019.0
20260509121538 49 13 5.0 8.0 0.00 0.00 0.00 64 1019.1
20260509121040 49 4 4.0 9.0 0.00 0.00 0.00 64 1018.9
20260509120543 49 352 5.0 9.0 0.00 0.00 0.00 64 1018.9
20260509120028 49 359 3.0 6.0 0.00 0.00 0.00 65 1018.8
20260509115529 48 12 3.0 8.0 0.00 0.00 0.00 65 1018.5
20260509115051 48 9 2.0 8.0 0.00 0.00 0.00 67 1018.4
20260509114534 48 290 4.0 8.0 0.00 0.00 0.00 66 1018.1
20260509114037 47 315 3.0 5.0 0.00 0.00 0.00 67 1018.1
20260509113540 47 311 3.0 6.0 0.00 0.00 0.00 69 1018.2
20260509113103 47 307 4.0 0.0 0.00 0.00 0.00 71 1018.1
20260509112526 47 324 4.0 6.0 0.00 0.00 0.00 72 1018.4
20260509112034 47 274 3.0 6.0 0.00 0.00 0.00 72 1018.4
20260509111534 46 351 2.0 6.0 0.00 0.00 0.00 72 1018.4
20260509111037 47 313 3.0 4.0 0.00 0.00 0.00 73 1018.4
20260509110537 47 308 0.0 0.0 0.00 0.00 0.00 77 1018.1
20260509110024 46 359 0.0 2.0 0.00 0.00 0.00 77 1017.9
20260509105529 46 359 0.0 3.0 0.00 0.00 0.00 79 1018.0
20260509105031 46 289 1.0 3.0 0.00 0.00 0.00 80 1018.1
20260509104535 45 323 0.0 0.0 0.00 0.00 0.00 82 1018.1
20260509104101 45 272 0.0 2.0 0.00 0.00 0.00 83 1017.9
20260509103544 45 272 1.0 2.0 0.00 0.00 0.00 84 1017.7
20260509103044 44 272 1.0 3.0 0.00 0.00 0.00 85 1017.6
20260509102607 44 293 2.0 4.0 0.00 0.00 0.00 85 1017.5
20260509102048 43 293 2.0 4.0 0.00 0.00 0.00 86 1017.4
20260509101530 43 300 0.0 3.0 0.00 0.00 0.00 87 1017.4
20260509101035 43 300 1.0 3.0 0.00 0.00 0.00 87 1017.4
20260509100543 43 304 1.0 2.0 0.00 0.00 0.00 87 1017.4
20260509100024 43 304 1.0 2.0 0.00 0.00 0.00 86 1017.2
20260509095530 44 288 0.0 2.0 0.00 0.00 0.00 87 1017.1
20260509095034 44 288 1.0 3.0 0.00 0.00 0.00 86 1017.1
20260509094557 44 288 2.0 3.0 0.00 0.00 0.00 85 1017.1
20260509094038 44 266 1.0 2.0 0.00 0.00 0.00 84 1017.0
20260509093540 44 213 0.0 4.0 0.00 0.00 0.00 84 1016.9
20260509093103 45 212 3.0 4.0 0.00 0.00 0.00 83 1016.7
20260509092545 45 247 0.0 0.0 0.00 0.00 0.00 82 1016.6
20260509092030 45 257 0.0 3.0 0.00 0.00 0.00 81 1016.3
20260509091533 45 257 1.0 3.0 0.00 0.00 0.00 80 1016.1
20260509091037 45 269 2.0 3.0 0.00 0.00 0.00 80 1016.1
20260509090539 45 281 2.0 3.0 0.00 0.00 0.00 80 1016.1
20260509090105 46 314 1.0 4.0 0.00 0.00 0.00 80 1016.0
20260509085549 46 283 3.0 4.0 0.00 0.00 0.00 80 1016.0
20260509085030 46 292 2.0 4.0 0.00 0.00 0.00 80 1016.0